owner,sensor,date,latitude,longitude,vertical_datum,mass_concentration_of_oxygen_in_sea_water,qcFlag 
SCCF RECON,ioos:station:SCCF:53:1,2010-07-01T00:00:00Z,26.6493,-81.8810,2.339,7.74,1111122 
SCCF RECON,ioos:station:SCCF:53:1,2010-07-01T01:00:00Z,26.6493,-81.8810,2.28,7.38,1111122 
SCCF RECON,ioos:station:SCCF:53:1,2010-07-01T02:00:00Z,26.6493,-81.8810,2.239,7.17,1111122 
SCCF RECON,ioos:station:SCCF:53:1,2010-07-01T03:00:00Z,26.6493,-81.8810,2.19,7.08,1111122 
SCCF RECON,ioos:station:SCCF:53:1,2010-07-01T04:00:00Z,26.6493,-81.8810,2.13,6.8,1111122 
SCCF RECON,ioos:station:SCCF:53:1,2010-07-01T05:00:00Z,26.6493,-81.8810,2.09,6.96,1111122 
SCCF RECON,ioos:station:SCCF:53:1,2010-07-01T06:00:00Z,26.6493,-81.8810,2.04,6.81,1111122 
SCCF RECON,ioos:station:SCCF:53:1,2010-07-01T07:00:00Z,26.6493,-81.8810,2.03,6.76,1111122 
SCCF RECON,ioos:station:SCCF:53:1,2010-07-01T08:00:00Z,26.6493,-81.8810,2.09,6.78,1111122 
SCCF RECON,ioos:station:SCCF:53:1,2010-07-01T09:00:00Z,26.6493,-81.8810,2.16,6.74,1111122 
SCCF RECON,ioos:station:SCCF:53:1,2010-07-01T10:00:00Z,26.6493,-81.8810,2.2,6.66,1111122 
SCCF RECON,ioos:station:SCCF:53:1,2010-07-01T11:00:00Z,26.6493,-81.8810,2.25,6.58,1111122 
SCCF RECON,ioos:station:SCCF:53:1,2010-07-01T12:00:00Z,26.6493,-81.8810,2.28,6.56,1111122 
SCCF RECON,ioos:station:SCCF:53:1,2010-07-01T13:00:00Z,26.6493,-81.8810,2.269,6.52,1111122 
SCCF RECON,ioos:station:SCCF:53:1,2010-07-01T14:00:00Z,26.6493,-81.8810,2.24,6.46,1111122 
SCCF RECON,ioos:station:SCCF:53:1,2010-07-01T15:00:00Z,26.6493,-81.8810,2.201,6.71,1111122 
SCCF RECON,ioos:station:SCCF:53:1,2010-07-01T16:00:00Z,26.6493,-81.8810,2.16,6.79,1111122 
SCCF RECON,ioos:station:SCCF:53:1,2010-07-01T17:00:00Z,26.6493,-81.8810,2.121,6.9,1111122 
SCCF RECON,ioos:station:SCCF:53:1,2010-07-01T18:00:00Z,26.6493,-81.8810,2.111,6.77,1111122 
SCCF RECON,ioos:station:SCCF:53:1,2010-07-01T19:00:00Z,26.6493,-81.8810,2.14,5.84,1111122 
SCCF RECON,ioos:station:SCCF:53:1,2010-07-01T20:00:00Z,26.6493,-81.8810,2.198,6.97,1111122 
SCCF RECON,ioos:station:SCCF:53:1,2010-07-01T21:00:00Z,26.6493,-81.8810,2.26,6.43,1111122 
SCCF RECON,ioos:station:SCCF:53:1,2010-07-01T22:00:00Z,26.6493,-81.8810,2.322,5.64,1111122 
SCCF RECON,ioos:station:SCCF:53:1,2010-07-01T23:00:00Z,26.6493,-81.8810,2.36,5.96,1111122 
SCCF RECON,ioos:station:SCCF:53:1,2010-07-02T00:00:00Z,26.6493,-81.8810,2.33,6.91,1111122 
SCCF RECON,ioos:station:SCCF:53:1,2010-07-02T01:00:00Z,26.6493,-81.8810,2.27,7.51,1111122 
SCCF RECON,ioos:station:SCCF:53:1,2010-07-02T02:00:00Z,26.6493,-81.8810,2.23,7.06,1111122 
SCCF RECON,ioos:station:SCCF:53:1,2010-07-02T03:00:00Z,26.6493,-81.8810,2.18,6.84,1111122 
SCCF RECON,ioos:station:SCCF:53:1,2010-07-02T04:00:00Z,26.6493,-81.8810,2.14,6.63,1111122 
SCCF RECON,ioos:station:SCCF:53:1,2010-07-02T05:00:00Z,26.6493,-81.8810,2.08,6.66,1111122 
SCCF RECON,ioos:station:SCCF:53:1,2010-07-02T06:00:00Z,26.6493,-81.8810,2.045,6.7,1111122 
SCCF RECON,ioos:station:SCCF:53:1,2010-07-02T07:00:00Z,26.6493,-81.8810,2.02,6.74,1111122 
SCCF RECON,ioos:station:SCCF:53:1,2010-07-02T08:00:00Z,26.6493,-81.8810,2.04,6.55,1111122 
SCCF RECON,ioos:station:SCCF:53:1,2010-07-02T09:00:00Z,26.6493,-81.8810,2.1,6.67,1111122 
SCCF RECON,ioos:station:SCCF:53:1,2010-07-02T10:00:00Z,26.6493,-81.8810,2.15,6.59,1111122 
SCCF RECON,ioos:station:SCCF:53:1,2010-07-02T11:00:00Z,26.6493,-81.8810,2.2,6.32,1111122 
SCCF RECON,ioos:station:SCCF:53:1,2010-07-02T12:00:00Z,26.6493,-81.8810,2.24,5.67,1111122 
SCCF RECON,ioos:station:SCCF:53:1,2010-07-02T13:00:00Z,26.6493,-81.8810,2.24,6.2,1111122 
SCCF RECON,ioos:station:SCCF:53:1,2010-07-02T14:00:00Z,26.6493,-81.8810,2.208,6.28,1111122 
SCCF RECON,ioos:station:SCCF:53:1,2010-07-02T15:00:00Z,26.6493,-81.8810,2.169,6.61,1111122 
SCCF RECON,ioos:station:SCCF:53:1,2010-07-02T16:00:00Z,26.6493,-81.8810,2.128,6.66,1111122 
SCCF RECON,ioos:station:SCCF:53:1,2010-07-02T17:00:00Z,26.6493,-81.8810,2.08,6.45,1111122 
SCCF RECON,ioos:station:SCCF:53:1,2010-07-02T18:00:00Z,26.6493,-81.8810,2.039,6.96,1111122 
SCCF RECON,ioos:station:SCCF:53:1,2010-07-02T19:00:00Z,26.6493,-81.8810,2.05,7.34,1111122 
SCCF RECON,ioos:station:SCCF:53:1,2010-07-02T20:00:00Z,26.6493,-81.8810,2.08,6.64,1111122 
SCCF RECON,ioos:station:SCCF:53:1,2010-07-02T21:00:00Z,26.6493,-81.8810,2.135,6.22,1111122 
SCCF RECON,ioos:station:SCCF:53:1,2010-07-02T22:00:00Z,26.6493,-81.8810,2.18,7.04,1111122 
SCCF RECON,ioos:station:SCCF:53:1,2010-07-02T23:00:00Z,26.6493,-81.8810,2.22,7.06,1111122 
SCCF RECON,ioos:station:SCCF:53:1,2010-07-03T00:00:00Z,26.6493,-81.8810,2.22,6.88,1111122 
SCCF RECON,ioos:station:SCCF:53:1,2010-07-03T01:00:00Z,26.6493,-81.8810,2.196,7.54,1111122 
SCCF RECON,ioos:station:SCCF:53:1,2010-07-03T02:00:00Z,26.6493,-81.8810,2.18,7.23,1111122 
SCCF RECON,ioos:station:SCCF:53:1,2010-07-03T03:00:00Z,26.6493,-81.8810,2.13,7.13,1111122 
SCCF RECON,ioos:station:SCCF:53:1,2010-07-03T04:00:00Z,26.6493,-81.8810,2.08,7.09,1111122 
SCCF RECON,ioos:station:SCCF:53:1,2010-07-03T05:00:00Z,26.6493,-81.8810,2.04,6.94,1111122 
SCCF RECON,ioos:station:SCCF:53:1,2010-07-03T06:00:00Z,26.6493,-81.8810,2.002,6.78,1111122 
SCCF RECON,ioos:station:SCCF:53:1,2010-07-03T07:00:00Z,26.6493,-81.8810,1.98,6.75,1111122 
SCCF RECON,ioos:station:SCCF:53:1,2010-07-03T08:00:00Z,26.6493,-81.8810,2.01,6.71,1111122 
SCCF RECON,ioos:station:SCCF:53:1,2010-07-03T09:00:00Z,26.6493,-81.8810,2.07,6.72,1111122 
SCCF RECON,ioos:station:SCCF:53:1,2010-07-03T10:00:00Z,26.6493,-81.8810,2.13,6.15,1111122 
SCCF RECON,ioos:station:SCCF:53:1,2010-07-03T11:00:00Z,26.6493,-81.8810,2.2,5.6,1111122 
SCCF RECON,ioos:station:SCCF:53:1,2010-07-03T12:00:00Z,26.6493,-81.8810,2.27,5.27,1111122 
SCCF RECON,ioos:station:SCCF:53:1,2010-07-03T13:00:00Z,26.6493,-81.8810,2.313,5.46,1111122 
SCCF RECON,ioos:station:SCCF:53:1,2010-07-03T14:00:00Z,26.6493,-81.8810,2.32,5.26,1111122 
SCCF RECON,ioos:station:SCCF:53:1,2010-07-03T15:00:00Z,26.6493,-81.8810,2.281,6.69,1111122 
SCCF RECON,ioos:station:SCCF:53:1,2010-07-03T16:00:00Z,26.6493,-81.8810,2.24,6.65,1111122 
SCCF RECON,ioos:station:SCCF:53:1,2010-07-03T17:00:00Z,26.6493,-81.8810,2.19,6.58,1111122 
SCCF RECON,ioos:station:SCCF:53:1,2010-07-03T18:00:00Z,26.6493,-81.8810,2.146,6.53,1111122 
SCCF RECON,ioos:station:SCCF:53:1,2010-07-03T19:00:00Z,26.6493,-81.8810,2.106,6.82,1111122 
SCCF RECON,ioos:station:SCCF:53:1,2010-07-03T20:00:00Z,26.6493,-81.8810,2.08,7.11,1111122 
SCCF RECON,ioos:station:SCCF:53:1,2010-07-03T21:00:00Z,26.6493,-81.8810,2.09,6.78,1111122 
SCCF RECON,ioos:station:SCCF:53:1,2010-07-03T22:00:00Z,26.6493,-81.8810,2.188,7.3,1111122 
SCCF RECON,ioos:station:SCCF:53:1,2010-07-03T23:00:00Z,26.6493,-81.8810,2.202,7.21,1111122 
SCCF RECON,ioos:station:SCCF:53:1,2010-07-04T00:00:00Z,26.6493,-81.8810,2.26,7.21,1111122 
SCCF RECON,ioos:station:SCCF:53:1,2010-07-04T01:00:00Z,26.6493,-81.8810,2.3,6.95,1111122 
SCCF RECON,ioos:station:SCCF:53:1,2010-07-04T02:00:00Z,26.6493,-81.8810,2.27,6.93,1111122 
SCCF RECON,ioos:station:SCCF:53:1,2010-07-04T03:00:00Z,26.6493,-81.8810,2.23,6.93,1111122 
SCCF RECON,ioos:station:SCCF:53:1,2010-07-04T04:00:00Z,26.6493,-81.8810,2.187,6.81,1111122 
SCCF RECON,ioos:station:SCCF:53:1,2010-07-04T05:00:00Z,26.6493,-81.8810,2.14,6.76,1111122 
SCCF RECON,ioos:station:SCCF:53:1,2010-07-04T06:00:00Z,26.6493,-81.8810,2.1,6.87,1111122 
SCCF RECON,ioos:station:SCCF:53:1,2010-07-04T07:00:00Z,26.6493,-81.8810,2.07,6.83,1111122 
SCCF RECON,ioos:station:SCCF:53:1,2010-07-04T08:00:00Z,26.6493,-81.8810,2.06,6.77,1111122 
SCCF RECON,ioos:station:SCCF:53:1,2010-07-04T09:00:00Z,26.6493,-81.8810,2.11,6.79,1111122 
SCCF RECON,ioos:station:SCCF:53:1,2010-07-04T10:00:00Z,26.6493,-81.8810,2.18,6.72,1111122 
SCCF RECON,ioos:station:SCCF:53:1,2010-07-04T11:00:00Z,26.6493,-81.8810,2.25,6.59,1111122 
SCCF RECON,ioos:station:SCCF:53:1,2010-07-04T12:00:00Z,26.6493,-81.8810,2.32,6.5,1111122 
SCCF RECON,ioos:station:SCCF:53:1,2010-07-04T13:00:00Z,26.6493,-81.8810,2.38,6.5,1111122 
SCCF RECON,ioos:station:SCCF:53:1,2010-07-04T14:00:00Z,26.6493,-81.8810,2.407,6.42,1111122 
SCCF RECON,ioos:station:SCCF:53:1,2010-07-04T15:00:00Z,26.6493,-81.8810,2.389,6.49,1111122 
SCCF RECON,ioos:station:SCCF:53:1,2010-07-04T16:00:00Z,26.6493,-81.8810,2.34,6.68,1111122 
SCCF RECON,ioos:station:SCCF:53:1,2010-07-04T17:00:00Z,26.6493,-81.8810,2.288,6.7,1111122 
SCCF RECON,ioos:station:SCCF:53:1,2010-07-04T18:00:00Z,26.6493,-81.8810,2.237,6.76,1111122 
SCCF RECON,ioos:station:SCCF:53:1,2010-07-04T19:00:00Z,26.6493,-81.8810,2.189,6.73,1111122 
SCCF RECON,ioos:station:SCCF:53:1,2010-07-04T20:00:00Z,26.6493,-81.8810,2.15,6.98,1111122 
SCCF RECON,ioos:station:SCCF:53:1,2010-07-04T21:00:00Z,26.6493,-81.8810,2.12,7.0,1111122 
SCCF RECON,ioos:station:SCCF:53:1,2010-07-04T22:00:00Z,26.6493,-81.8810,2.12,6.48,1111122 
SCCF RECON,ioos:station:SCCF:53:1,2010-07-04T23:00:00Z,26.6493,-81.8810,2.155,6.37,1111122 
SCCF RECON,ioos:station:SCCF:53:1,2010-07-05T00:00:00Z,26.6493,-81.8810,2.19,6.48,1111122 
SCCF RECON,ioos:station:SCCF:53:1,2010-07-05T01:00:00Z,26.6493,-81.8810,2.216,6.59,1111122 
SCCF RECON,ioos:station:SCCF:53:1,2010-07-05T02:00:00Z,26.6493,-81.8810,2.24,6.5,1111122 
SCCF RECON,ioos:station:SCCF:53:1,2010-07-05T03:00:00Z,26.6493,-81.8810,2.235,6.62,1111122 
SCCF RECON,ioos:station:SCCF:53:1,2010-07-05T04:00:00Z,26.6493,-81.8810,2.227,6.88,1111122 
SCCF RECON,ioos:station:SCCF:53:1,2010-07-05T05:00:00Z,26.6493,-81.8810,2.2,6.64,1111122 
SCCF RECON,ioos:station:SCCF:53:1,2010-07-05T06:00:00Z,26.6493,-81.8810,2.163,6.26,1111122 
SCCF RECON,ioos:station:SCCF:53:1,2010-07-05T07:00:00Z,26.6493,-81.8810,2.13,5.87,1111122 
SCCF RECON,ioos:station:SCCF:53:1,2010-07-05T08:00:00Z,26.6493,-81.8810,2.11,5.65,1111122 
SCCF RECON,ioos:station:SCCF:53:1,2010-07-05T09:00:00Z,26.6493,-81.8810,2.11,5.4,1111122 
SCCF RECON,ioos:station:SCCF:53:1,2010-07-05T10:00:00Z,26.6493,-81.8810,2.182,5.59,1111122 
SCCF RECON,ioos:station:SCCF:53:1,2010-07-05T11:00:00Z,26.6493,-81.8810,2.25,6.09,1111122 
SCCF RECON,ioos:station:SCCF:53:1,2010-07-05T12:00:00Z,26.6493,-81.8810,2.3,6.25,1111122 
SCCF RECON,ioos:station:SCCF:53:1,2010-07-05T13:00:00Z,26.6493,-81.8810,2.36,6.63,1111122 
SCCF RECON,ioos:station:SCCF:53:1,2010-07-05T14:00:00Z,26.6493,-81.8810,2.393,6.47,1111122 
SCCF RECON,ioos:station:SCCF:53:1,2010-07-05T15:00:00Z,26.6493,-81.8810,2.392,6.42,1111122 
SCCF RECON,ioos:station:SCCF:53:1,2010-07-05T16:00:00Z,26.6493,-81.8810,2.359,6.91,1111122 
SCCF RECON,ioos:station:SCCF:53:1,2010-07-05T17:00:00Z,26.6493,-81.8810,2.304,6.59,1111122 
SCCF RECON,ioos:station:SCCF:53:1,2010-07-05T18:00:00Z,26.6493,-81.8810,2.252,6.2,1111122 
SCCF RECON,ioos:station:SCCF:53:1,2010-07-05T19:00:00Z,26.6493,-81.8810,2.206,6.38,1111122 
SCCF RECON,ioos:station:SCCF:53:1,2010-07-05T20:00:00Z,26.6493,-81.8810,2.177,6.01,1111122 
SCCF RECON,ioos:station:SCCF:53:1,2010-07-05T21:00:00Z,26.6493,-81.8810,2.15,5.95,1111122 
SCCF RECON,ioos:station:SCCF:53:1,2010-07-05T22:00:00Z,26.6493,-81.8810,2.2,6.01,1111122 
SCCF RECON,ioos:station:SCCF:53:1,2010-07-05T23:00:00Z,26.6493,-81.8810,2.15,6.05,1111122 
SCCF RECON,ioos:station:SCCF:53:1,2010-07-06T00:00:00Z,26.6493,-81.8810,2.13,6.01,1111122 
SCCF RECON,ioos:station:SCCF:53:1,2010-07-06T01:00:00Z,26.6493,-81.8810,2.128,6.11,1111122 
SCCF RECON,ioos:station:SCCF:53:1,2010-07-06T02:00:00Z,26.6493,-81.8810,2.12,5.76,1111122 
SCCF RECON,ioos:station:SCCF:53:1,2010-07-06T03:00:00Z,26.6493,-81.8810,2.15,5.85,1111122 
SCCF RECON,ioos:station:SCCF:53:1,2010-07-06T04:00:00Z,26.6493,-81.8810,2.13,5.85,1111122 
SCCF RECON,ioos:station:SCCF:53:1,2010-07-06T05:00:00Z,26.6493,-81.8810,2.11,6.04,1111122 
SCCF RECON,ioos:station:SCCF:53:1,2010-07-06T06:00:00Z,26.6493,-81.8810,2.11,5.68,1111122 
SCCF RECON,ioos:station:SCCF:53:1,2010-07-06T07:00:00Z,26.6493,-81.8810,2.102,5.77,1111122 
SCCF RECON,ioos:station:SCCF:53:1,2010-07-06T08:00:00Z,26.6493,-81.8810,2.11,5.5,1111122 
SCCF RECON,ioos:station:SCCF:53:1,2010-07-06T09:00:00Z,26.6493,-81.8810,2.11,5.83,1111122 
SCCF RECON,ioos:station:SCCF:53:1,2010-07-06T10:00:00Z,26.6493,-81.8810,2.14,5.62,1111122 
SCCF RECON,ioos:station:SCCF:53:1,2010-07-06T11:00:00Z,26.6493,-81.8810,2.2,5.85,1111122 
SCCF RECON,ioos:station:SCCF:53:1,2010-07-06T12:00:00Z,26.6493,-81.8810,2.26,5.91,1111122 
SCCF RECON,ioos:station:SCCF:53:1,2010-07-06T13:00:00Z,26.6493,-81.8810,2.32,6.07,1111122 
SCCF RECON,ioos:station:SCCF:53:1,2010-07-06T14:00:00Z,26.6493,-81.8810,2.38,5.99,1111122 
SCCF RECON,ioos:station:SCCF:53:1,2010-07-06T15:00:00Z,26.6493,-81.8810,2.404,6.15,1111122 
SCCF RECON,ioos:station:SCCF:53:1,2010-07-06T16:00:00Z,26.6493,-81.8810,2.39,6.42,1111122 
SCCF RECON,ioos:station:SCCF:53:1,2010-07-06T17:00:00Z,26.6493,-81.8810,2.346,6.2,1111122 
SCCF RECON,ioos:station:SCCF:53:1,2010-07-06T18:00:00Z,26.6493,-81.8810,2.3,5.85,1111122 
SCCF RECON,ioos:station:SCCF:53:1,2010-07-06T19:00:00Z,26.6493,-81.8810,2.247,5.44,1111122 
SCCF RECON,ioos:station:SCCF:53:1,2010-07-06T20:00:00Z,26.6493,-81.8810,2.2,5.81,1111122 
SCCF RECON,ioos:station:SCCF:53:1,2010-07-06T21:00:00Z,26.6493,-81.8810,2.16,5.73,1111122 
SCCF RECON,ioos:station:SCCF:53:1,2010-07-06T22:00:00Z,26.6493,-81.8810,2.11,5.6,1111122 
SCCF RECON,ioos:station:SCCF:53:1,2010-07-06T23:00:00Z,26.6493,-81.8810,2.08,5.26,1111122 
SCCF RECON,ioos:station:SCCF:53:1,2010-07-07T00:00:00Z,26.6493,-81.8810,2.07,4.86,1111122 
SCCF RECON,ioos:station:SCCF:53:1,2010-07-07T01:00:00Z,26.6493,-81.8810,2.09,4.8,1111122 
SCCF RECON,ioos:station:SCCF:53:1,2010-07-07T02:00:00Z,26.6493,-81.8810,2.13,4.97,1111122 
SCCF RECON,ioos:station:SCCF:53:1,2010-07-07T03:00:00Z,26.6493,-81.8810,2.176,5.03,1111122 
SCCF RECON,ioos:station:SCCF:53:1,2010-07-07T04:00:00Z,26.6493,-81.8810,2.2,5.02,1111122 
SCCF RECON,ioos:station:SCCF:53:1,2010-07-07T05:00:00Z,26.6493,-81.8810,2.21,5.14,1111122 
SCCF RECON,ioos:station:SCCF:53:1,2010-07-07T06:00:00Z,26.6493,-81.8810,2.19,5.07,1111122 
SCCF RECON,ioos:station:SCCF:53:1,2010-07-07T07:00:00Z,26.6493,-81.8810,2.17,4.85,1111122 
SCCF RECON,ioos:station:SCCF:53:1,2010-07-07T08:00:00Z,26.6493,-81.8810,2.17,5.19,1111122 
SCCF RECON,ioos:station:SCCF:53:1,2010-07-07T09:00:00Z,26.6493,-81.8810,2.16,5.29,1111122 
SCCF RECON,ioos:station:SCCF:53:1,2010-07-07T10:00:00Z,26.6493,-81.8810,2.16,4.72,1111122 
SCCF RECON,ioos:station:SCCF:53:1,2010-07-07T11:00:00Z,26.6493,-81.8810,2.18,4.42,1111122 
SCCF RECON,ioos:station:SCCF:53:1,2010-07-07T12:00:00Z,26.6493,-81.8810,2.229,4.48,1111122 
SCCF RECON,ioos:station:SCCF:53:1,2010-07-07T13:00:00Z,26.6493,-81.8810,2.29,4.97,1111122 
SCCF RECON,ioos:station:SCCF:53:1,2010-07-07T14:00:00Z,26.6493,-81.8810,2.34,5.06,1111122 
SCCF RECON,ioos:station:SCCF:53:1,2010-07-07T15:00:00Z,26.6493,-81.8810,2.385,5.08,1111122 
SCCF RECON,ioos:station:SCCF:53:1,2010-07-07T16:00:00Z,26.6493,-81.8810,2.42,5.25,1111122 
SCCF RECON,ioos:station:SCCF:53:1,2010-07-07T17:00:00Z,26.6493,-81.8810,2.41,4.94,1111122 
SCCF RECON,ioos:station:SCCF:53:1,2010-07-07T18:00:00Z,26.6493,-81.8810,2.348,5.04,1111122 
SCCF RECON,ioos:station:SCCF:53:1,2010-07-07T19:00:00Z,26.6493,-81.8810,2.284,4.62,1111122 
SCCF RECON,ioos:station:SCCF:53:1,2010-07-07T20:00:00Z,26.6493,-81.8810,2.23,4.7,1111122 
SCCF RECON,ioos:station:SCCF:53:1,2010-07-07T21:00:00Z,26.6493,-81.8810,2.181,4.92,1111122 
SCCF RECON,ioos:station:SCCF:53:1,2010-07-07T22:00:00Z,26.6493,-81.8810,2.13,4.5,1111122 
SCCF RECON,ioos:station:SCCF:53:1,2010-07-07T23:00:00Z,26.6493,-81.8810,2.092,4.35,1111122 
SCCF RECON,ioos:station:SCCF:53:1,2010-07-08T00:00:00Z,26.6493,-81.8810,2.05,4.29,1111122 
SCCF RECON,ioos:station:SCCF:53:1,2010-07-08T01:00:00Z,26.6493,-81.8810,2.03,4.27,1111122 
SCCF RECON,ioos:station:SCCF:53:1,2010-07-08T02:00:00Z,26.6493,-81.8810,2.03,4.24,1111122 
SCCF RECON,ioos:station:SCCF:53:1,2010-07-08T03:00:00Z,26.6493,-81.8810,2.05,4.18,1111122 
SCCF RECON,ioos:station:SCCF:53:1,2010-07-08T04:00:00Z,26.6493,-81.8810,2.09,4.38,1111122 
SCCF RECON,ioos:station:SCCF:53:1,2010-07-08T05:00:00Z,26.6493,-81.8810,2.14,4.37,1111122 
SCCF RECON,ioos:station:SCCF:53:1,2010-07-08T06:00:00Z,26.6493,-81.8810,2.18,4.46,1111122 
SCCF RECON,ioos:station:SCCF:53:1,2010-07-08T07:00:00Z,26.6493,-81.8810,2.19,4.45,1111122 
SCCF RECON,ioos:station:SCCF:53:1,2010-07-08T08:00:00Z,26.6493,-81.8810,2.18,4.46,1111122 
SCCF RECON,ioos:station:SCCF:53:1,2010-07-08T09:00:00Z,26.6493,-81.8810,2.15,4.46,1111122 
SCCF RECON,ioos:station:SCCF:53:1,2010-07-08T10:00:00Z,26.6493,-81.8810,2.12,4.36,1111122 
SCCF RECON,ioos:station:SCCF:53:1,2010-07-08T11:00:00Z,26.6493,-81.8810,2.115,4.26,1111122 
SCCF RECON,ioos:station:SCCF:53:1,2010-07-08T12:00:00Z,26.6493,-81.8810,2.151,4.38,1111122 
SCCF RECON,ioos:station:SCCF:53:1,2010-07-08T13:00:00Z,26.6493,-81.8810,2.225,4.28,1111122 
SCCF RECON,ioos:station:SCCF:53:1,2010-07-08T14:00:00Z,26.6493,-81.8810,2.287,4.57,1111122 
SCCF RECON,ioos:station:SCCF:53:1,2010-07-08T15:00:00Z,26.6493,-81.8810,2.35,4.74,1111122 
SCCF RECON,ioos:station:SCCF:53:1,2010-07-08T16:00:00Z,26.6493,-81.8810,2.41,4.77,1111122 
SCCF RECON,ioos:station:SCCF:53:1,2010-07-08T17:00:00Z,26.6493,-81.8810,2.438,4.79,1111122 
SCCF RECON,ioos:station:SCCF:53:1,2010-07-08T18:00:00Z,26.6493,-81.8810,2.41,4.75,1111122 
SCCF RECON,ioos:station:SCCF:53:1,2010-07-08T19:00:00Z,26.6493,-81.8810,2.34,4.72,1111122 
SCCF RECON,ioos:station:SCCF:53:1,2010-07-08T20:00:00Z,26.6493,-81.8810,2.28,4.52,1111122 
SCCF RECON,ioos:station:SCCF:53:1,2010-07-08T21:00:00Z,26.6493,-81.8810,2.22,4.74,1111122 
SCCF RECON,ioos:station:SCCF:53:1,2010-07-08T22:00:00Z,26.6493,-81.8810,2.16,4.73,1111122 
SCCF RECON,ioos:station:SCCF:53:1,2010-07-08T23:00:00Z,26.6493,-81.8810,2.118,4.75,1111122 
SCCF RECON,ioos:station:SCCF:53:1,2010-07-09T00:00:00Z,26.6493,-81.8810,2.07,4.6,1111122 
SCCF RECON,ioos:station:SCCF:53:1,2010-07-09T01:00:00Z,26.6493,-81.8810,2.031,4.49,1111122 
SCCF RECON,ioos:station:SCCF:53:1,2010-07-09T02:00:00Z,26.6493,-81.8810,2.018,4.47,1111122 
SCCF RECON,ioos:station:SCCF:53:1,2010-07-09T03:00:00Z,26.6493,-81.8810,2.02,4.39,1111122 
SCCF RECON,ioos:station:SCCF:53:1,2010-07-09T04:00:00Z,26.6493,-81.8810,2.09,4.44,1111122 
SCCF RECON,ioos:station:SCCF:53:1,2010-07-09T05:00:00Z,26.6493,-81.8810,2.15,4.51,1111122 
SCCF RECON,ioos:station:SCCF:53:1,2010-07-09T06:00:00Z,26.6493,-81.8810,2.19,4.49,1111122 
SCCF RECON,ioos:station:SCCF:53:1,2010-07-09T07:00:00Z,26.6493,-81.8810,2.24,4.51,1111122 
SCCF RECON,ioos:station:SCCF:53:1,2010-07-09T08:00:00Z,26.6493,-81.8810,2.24,4.41,1111122 
SCCF RECON,ioos:station:SCCF:53:1,2010-07-09T09:00:00Z,26.6493,-81.8810,2.24,4.48,1111122 
SCCF RECON,ioos:station:SCCF:53:1,2010-07-09T10:00:00Z,26.6493,-81.8810,2.24,4.42,1111122 
SCCF RECON,ioos:station:SCCF:53:1,2010-07-09T11:00:00Z,26.6493,-81.8810,2.22,4.44,1111122 
SCCF RECON,ioos:station:SCCF:53:1,2010-07-09T12:00:00Z,26.6493,-81.8810,2.23,4.36,1111122 
SCCF RECON,ioos:station:SCCF:53:1,2010-07-09T13:00:00Z,26.6493,-81.8810,2.281,4.39,1111122 
SCCF RECON,ioos:station:SCCF:53:1,2010-07-09T14:00:00Z,26.6493,-81.8810,2.35,4.46,1111122 
SCCF RECON,ioos:station:SCCF:53:1,2010-07-09T16:00:00Z,26.6493,-81.8810,2.46,4.4,1111122 
SCCF RECON,ioos:station:SCCF:53:1,2010-07-09T17:00:00Z,26.6493,-81.8810,2.5,4.33,1111122 
SCCF RECON,ioos:station:SCCF:53:1,2010-07-09T18:00:00Z,26.6493,-81.8810,2.52,4.17,1111122 
SCCF RECON,ioos:station:SCCF:53:1,2010-07-09T19:00:00Z,26.6493,-81.8810,2.48,4.36,1111122 
SCCF RECON,ioos:station:SCCF:53:1,2010-07-09T20:00:00Z,26.6493,-81.8810,2.41,4.3,1111122 
SCCF RECON,ioos:station:SCCF:53:1,2010-07-09T21:00:00Z,26.6493,-81.8810,2.34,4.39,1111122 
SCCF RECON,ioos:station:SCCF:53:1,2010-07-09T22:00:00Z,26.6493,-81.8810,2.28,4.55,1111122 
SCCF RECON,ioos:station:SCCF:53:1,2010-07-09T23:00:00Z,26.6493,-81.8810,2.22,4.58,1111122 
SCCF RECON,ioos:station:SCCF:53:1,2010-07-10T00:00:00Z,26.6493,-81.8810,2.17,4.4,1111122 
SCCF RECON,ioos:station:SCCF:53:1,2010-07-10T01:00:00Z,26.6493,-81.8810,2.13,4.73,1111122 
SCCF RECON,ioos:station:SCCF:53:1,2010-07-10T02:00:00Z,26.6493,-81.8810,2.09,4.52,1111122 
SCCF RECON,ioos:station:SCCF:53:1,2010-07-10T03:00:00Z,26.6493,-81.8810,2.06,4.44,1111122 
SCCF RECON,ioos:station:SCCF:53:1,2010-07-10T04:00:00Z,26.6493,-81.8810,2.07,4.26,1111122 
SCCF RECON,ioos:station:SCCF:53:1,2010-07-10T05:00:00Z,26.6493,-81.8810,2.12,4.33,1111122 
SCCF RECON,ioos:station:SCCF:53:1,2010-07-10T06:00:00Z,26.6493,-81.8810,2.16,4.34,1111122 
SCCF RECON,ioos:station:SCCF:53:1,2010-07-10T07:00:00Z,26.6493,-81.8810,2.21,4.39,1111122 
SCCF RECON,ioos:station:SCCF:53:1,2010-07-10T08:00:00Z,26.6493,-81.8810,2.25,4.32,1111122 
SCCF RECON,ioos:station:SCCF:53:1,2010-07-10T09:00:00Z,26.6493,-81.8810,2.24,4.34,1111122 
SCCF RECON,ioos:station:SCCF:53:1,2010-07-10T10:00:00Z,26.6493,-81.8810,2.22,4.24,1111122 
SCCF RECON,ioos:station:SCCF:53:1,2010-07-10T11:00:00Z,26.6493,-81.8810,2.21,4.11,1111122 
SCCF RECON,ioos:station:SCCF:53:1,2010-07-10T12:00:00Z,26.6493,-81.8810,2.192,4.04,1111122 
SCCF RECON,ioos:station:SCCF:53:1,2010-07-10T13:00:00Z,26.6493,-81.8810,2.22,3.94,1111122 
SCCF RECON,ioos:station:SCCF:53:1,2010-07-10T14:00:00Z,26.6493,-81.8810,2.28,3.96,1111122 
SCCF RECON,ioos:station:SCCF:53:1,2010-07-10T15:00:00Z,26.6493,-81.8810,2.34,4.03,1111122 
SCCF RECON,ioos:station:SCCF:53:1,2010-07-10T16:00:00Z,26.6493,-81.8810,2.41,4.12,1111122 
SCCF RECON,ioos:station:SCCF:53:1,2010-07-10T17:00:00Z,26.6493,-81.8810,2.47,4.21,1111122 
SCCF RECON,ioos:station:SCCF:53:1,2010-07-10T18:00:00Z,26.6493,-81.8810,2.53,4.22,1111122 
SCCF RECON,ioos:station:SCCF:53:1,2010-07-10T19:00:00Z,26.6493,-81.8810,2.55,4.13,1111122 
SCCF RECON,ioos:station:SCCF:53:1,2010-07-10T20:00:00Z,26.6493,-81.8810,2.51,3.97,1111122 
SCCF RECON,ioos:station:SCCF:53:1,2010-07-10T21:00:00Z,26.6493,-81.8810,2.43,4.03,1111122 
SCCF RECON,ioos:station:SCCF:53:1,2010-07-10T22:00:00Z,26.6493,-81.8810,2.37,4.51,1111122 
SCCF RECON,ioos:station:SCCF:53:1,2010-07-10T23:00:00Z,26.6493,-81.8810,2.31,4.67,1111122 
SCCF RECON,ioos:station:SCCF:53:1,2010-07-11T00:00:00Z,26.6493,-81.8810,2.256,4.86,1111122 
SCCF RECON,ioos:station:SCCF:53:1,2010-07-11T01:00:00Z,26.6493,-81.8810,2.19,4.61,1111122 
SCCF RECON,ioos:station:SCCF:53:1,2010-07-11T02:00:00Z,26.6493,-81.8810,2.14,4.41,1111122 
SCCF RECON,ioos:station:SCCF:53:1,2010-07-11T03:00:00Z,26.6493,-81.8810,2.1,4.69,1111122 
SCCF RECON,ioos:station:SCCF:53:1,2010-07-11T04:00:00Z,26.6493,-81.8810,2.07,4.55,1111122 
SCCF RECON,ioos:station:SCCF:53:1,2010-07-11T05:00:00Z,26.6493,-81.8810,2.09,4.59,1111122 
SCCF RECON,ioos:station:SCCF:53:1,2010-07-11T06:00:00Z,26.6493,-81.8810,2.139,4.64,1111122 
SCCF RECON,ioos:station:SCCF:53:1,2010-07-11T07:00:00Z,26.6493,-81.8810,2.185,4.63,1111122 
SCCF RECON,ioos:station:SCCF:53:1,2010-07-11T08:00:00Z,26.6493,-81.8810,2.23,4.44,1111122 
SCCF RECON,ioos:station:SCCF:53:1,2010-07-11T09:00:00Z,26.6493,-81.8810,2.25,4.27,1111122 
SCCF RECON,ioos:station:SCCF:53:1,2010-07-11T10:00:00Z,26.6493,-81.8810,2.24,4.42,1111122 
SCCF RECON,ioos:station:SCCF:53:1,2010-07-11T11:00:00Z,26.6493,-81.8810,2.206,4.45,1111122 
SCCF RECON,ioos:station:SCCF:53:1,2010-07-11T12:00:00Z,26.6493,-81.8810,2.18,4.41,1111122 
SCCF RECON,ioos:station:SCCF:53:1,2010-07-11T13:00:00Z,26.6493,-81.8810,2.17,4.38,1111122 
SCCF RECON,ioos:station:SCCF:53:1,2010-07-11T14:00:00Z,26.6493,-81.8810,2.18,4.22,1111122 
SCCF RECON,ioos:station:SCCF:53:1,2010-07-11T15:00:00Z,26.6493,-81.8810,2.25,4.27,1111122 
SCCF RECON,ioos:station:SCCF:53:1,2010-07-11T16:00:00Z,26.6493,-81.8810,2.34,4.4,1111122 
SCCF RECON,ioos:station:SCCF:53:1,2010-07-11T17:00:00Z,26.6493,-81.8810,2.429,4.4,1111122 
SCCF RECON,ioos:station:SCCF:53:1,2010-07-11T18:00:00Z,26.6493,-81.8810,2.5,4.49,1111122 
SCCF RECON,ioos:station:SCCF:53:1,2010-07-11T19:00:00Z,26.6493,-81.8810,2.54,4.9,1111122 
SCCF RECON,ioos:station:SCCF:53:1,2010-07-11T20:00:00Z,26.6493,-81.8810,2.54,5.07,1111122 
SCCF RECON,ioos:station:SCCF:53:1,2010-07-11T21:00:00Z,26.6493,-81.8810,2.476,5.32,1111122 
SCCF RECON,ioos:station:SCCF:53:1,2010-07-11T22:00:00Z,26.6493,-81.8810,2.41,5.17,1111122 